Kingsville, TX

8:28 AM CDT on September 29, 2016 (GMT -0500)
Kingsville Naval Air Station

Weather History for KNQI - June, 2013

Change the Weather History Date:

Saturday, June 29, 2013

  Actual Average Record
Temperature  
Mean Temperature 92 °F -  
Max Temperature 109 °F 91 °F 109 °F (2013)
Min Temperature 75 °F 73 °F 70 °F (2005)
Cooling Degree Days 26    
Growing Degree Days 42 (Base 50)    
Moisture  
Dew Point 70 °F    
Average Humidity 55    
Maximum Humidity 94    
Minimum Humidity 25    
Precipitation  
Precipitation 0.00 in - - ()
Sea Level Pressure  
Sea Level Pressure 29.80 in    
Wind  
Wind Speed 8 mph (South)    
Max Wind Speed 16 mph    
Max Gust Speed 20 mph    
Visibility 10 miles    
Events      
Averages and records for this station are not official NWS values.
T = Trace of Precipitation, MM = Missing Value Source: NWS Daily Summary

Daily Weather History Graph

Daily Weather History Graph

Search for Another Location

Airport or City:

Trip Planner

Search our weather history database for the weather conditions in past years. The results will help you decide how hot, cold, wet, or windy it might be!

Date:

Astronomy

Jun. 29, 2013 Rise Set
Actual Time 6:38 AM CDT 8:30 PM CDT
Civil Twilight 6:12 AM CDT 8:57 PM CDT
Nautical Twilight 5:40 AM CDT 9:29 PM CDT
Astronomical Twilight 5:06 AM CDT 10:02 PM CDT
Moon 12:36 AM CDT 1:12 PM CDT
Length of Visible Light 14h 44m
Length of Day
13h 51m
Waning Gibbous, 55% of the Moon is Illuminated
Jun 29
Waning Gibbous
Jun 29
Last Quarter
Jul 8
New
Jul 15
First Quarter
Jul 22
Full

Hourly Weather History & Observations

Time (CDT) Temp. Heat Index Dew Point Humidity Pressure Visibility Wind Dir Wind Speed Gust Speed Precip Events Conditions
12:56 AM 81.0 °F 85.8 °F 73.0 °F 77% 29.84 in 10.0 mi South 10.4 mph - N/A   Clear
1:56 AM 81.0 °F 85.8 °F 73.0 °F 77% 29.84 in 10.0 mi South 11.5 mph - N/A   Clear
2:56 AM 80.1 °F 84.2 °F 73.0 °F 79% 29.84 in 10.0 mi South 9.2 mph - N/A   Clear
3:56 AM 78.1 °F - 73.9 °F 87% 29.84 in 10.0 mi South 8.1 mph - N/A   Clear
4:56 AM 78.1 °F - 73.9 °F 87% 29.84 in 10.0 mi SSW 5.8 mph - N/A   Clear
5:56 AM 75.9 °F - 73.9 °F 94% 29.84 in 10.0 mi South 4.6 mph - N/A   Clear
6:56 AM 75.9 °F - 73.9 °F 94% 29.85 in 10.0 mi South 3.5 mph - N/A   Clear
7:56 AM 80.1 °F 85.1 °F 75.0 °F 85% 29.86 in 10.0 mi SSW 3.5 mph - N/A   Clear
8:56 AM 84.9 °F 93.3 °F 75.0 °F 72% 29.86 in 10.0 mi SSW 6.9 mph - N/A   Clear
9:56 AM 89.1 °F 97.0 °F 73.0 °F 59% 29.86 in 10.0 mi SSW 4.6 mph - N/A   Clear
10:56 AM 91.9 °F 98.4 °F 71.1 °F 50% 29.85 in 10.0 mi SW 4.6 mph - N/A   Clear
11:56 AM 98.1 °F 103.0 °F 68.0 °F 37% 29.84 in 10.0 mi WSW 5.8 mph - N/A   Clear
12:56 PM 100.0 °F 104.2 °F 66.0 °F 33% 29.83 in 10.0 mi Variable 3.5 mph - N/A   Clear
1:56 PM 102.9 °F 107.6 °F 66.0 °F 30% 29.80 in 10.0 mi Variable 3.5 mph - N/A   Clear
2:56 PM 107.1 °F 112.1 °F 64.9 °F 26% 29.77 in 10.0 mi East 8.1 mph - N/A   Clear
3:56 PM 108.0 °F 112.9 °F 64.9 °F 25% 29.75 in 10.0 mi East 6.9 mph - N/A   Clear
4:56 PM 108.0 °F 112.9 °F 64.9 °F 25% 29.73 in 10.0 mi ENE 12.7 mph 18.4 mph N/A   Clear
5:56 PM 106.0 °F 112.7 °F 68.0 °F 29% 29.71 in 10.0 mi SE 13.8 mph 19.6 mph N/A   Clear
6:56 PM 100.0 °F 105.6 °F 68.0 °F 35% 29.71 in 10.0 mi SSE 16.1 mph - N/A   Clear
7:56 PM 96.1 °F 101.0 °F 68.0 °F 40% 29.72 in 10.0 mi SE 10.4 mph - N/A   Clear
8:56 PM 91.9 °F 94.1 °F 64.9 °F 41% 29.73 in 10.0 mi SSE 9.2 mph - N/A   Clear
9:56 PM 90.0 °F 90.6 °F 63.0 °F 40% 29.74 in 10.0 mi SSE 8.1 mph - N/A   Clear
10:56 PM 88.0 °F 90.7 °F 66.9 °F 49% 29.75 in 10.0 mi SSE 8.1 mph - N/A   Clear
11:56 PM 86.0 °F 90.1 °F 69.1 °F 57% 29.76 in 10.0 mi SSE 8.1 mph - N/A   Clear